Wind_Speed
11 14 19 20 21 21 23 22 19 18 20 23 22 21 21 19 18 20 22 22 22 22 21 22 22 18 28 31 33 34 33 36 38 42 41 41 43 41 38 38 39 39 39 36
15 18 17 16 19 20 23 24 20 18 13 13 16 19 21 23 24 24 22 23 22 22 23 22 20 25 30 31 33 35 37 38 39 41 42 44 45 44 43 43 44 43 42 41
17 18 19 18 18 20 18 20 19 22 19 19 23 27 25 25 25 26 26 25 23 22 22 22 21 23 24 25 23 28 35 42 42 38 39 44 42 41 42 45 47 46 46 45
17 19 13 13 18 18 21 20 20 21 20 22 19 21 24 27 28 28 28 26 25 24 26 25 25 26 26 27 30 19 21 38 43 43 42 40 41 45 43 40 40 45 46 47
19 17 18 21 21 17 23 18 18 19 20 23 26 24 26 20 19 21 22 25 22 23 22 21 18 18 19 17 18 23 26 31 41 42 45 45 44 42 42 44 44 41 41 49
19 19 11 12 15 19 16 18 20 17 20 20 26 28 30 28 28 26 24 26 19 17 18 20 22 20 17 16 18 20 26 29 34 38 43 45 47 46 45 44 46 47 45 52
19 22 19 13 13 12 17 18 17 16 17 15 26 26 28 24 24 26 15 17 17 21 20 16 16 12 13 16 20 22 25 34 37 35 37 41 46 50 50 46 44 43 46 54
16 18 18 19 21 18 16 18 21 16 14 17 22 24 8 10 5 13 10 19 19 19 14 14 15 12 10 13 19 22 28 30 34 32 35 37 41 46 48 51 52 47 46 51
23 27 19 20 15 18 24 29 22 26 29 25 30 31 24 20 21 21 19 16 16 12 16 15 15 8 15 18 20 22 23 26 30 30 34 41 40 43 45 48 50 52 55 56
11 14 12 12 14 22 21 18 16 21 17 21 20 27 22 12 9 7 10 12 13 12 12 10 13 16 19 19 23 26 22 19 22 25 27 34 40 40 43 47 49 49 52 58
14 12 17 19 17 20 19 23 23 24 27 4 6 8 7 9 7 4 12 13 15 15 12 15 16 17 21 18 19 24 27 31 33 29 29 22 25 28 27 34 39 43 48 55
9 9 16 22 23 23 24 27 27 23 20 26 24 27 20 15 12 8 7 15 16 11 18 17 16 14 15 17 23 25 26 29 35 36 35 43 49 38 33 33 33 34 35 44
8 7 14 17 18 24 27 23 29 28 30 32 19 18 14 16 10 6 18 14 15 17 16 16 16 21 26 31 31 34 37 35 29 34 36 28 35 37 35 34 32 30 31 33
19 16 21 21 21 18 19 23 18 15 12 17 30 29 27 21 18 19 23 24 22 16 14 16 19 23 31 29 30 37 39 36 35 36 35 37 36 35 38 36 38 36 36 35
17 17 21 28 30 31 31 28 24 25 22 21 20 24 23 24 27 25 20 18 16 15 18 24 30 28 21 25 34 38 34 35 31 33 36 36 37 35 43 43 38 39 42 35
16 16 16 23 21 25 29 28 27 29 31 33 32 36 29 27 22 18 18 17 13 18 22 25 19 23 24 25 33 42 36 33 37 42 41 43 41 39 39 43 44 38 37 39
21 17 11 18 17 19 21 22 23 25 25 26 27 24 21 11 11 11 10 14 16 19 20 23 27 28 27 31 37 34 35 41 38 41 43 44 45 42 42 41 43 46 36 37
25 18 19 11 13 9 13 10 11 9 7 7 14 10 9 12 7 9 12 19 20 19 22 24 28 35 39 39 38 45 49 50 47 47 45 47 41 40 38 40 42 40 42 35
25 22 14 5 11 16 16 8 6 6 7 9 5 5 5 3 11 12 13 16 16 20 25 33 39 41 37 36 40 48 54 55 57 57 56 53 48 46 43 34 39 43 38 41
18 14 20 11 4 4 2 6 5 3 11 5 4 6 11 13 17 16 23 27 30 33 35 43 43 42 43 40 39 43 51 59 61 61 65 51 48 48 49 47 44 40 44 42
17 26 28 28 16 11 12 5 3 9 6 8 8 12 16 19 20 27 30 30 32 31 34 38 40 39 38 43 46 50 54 58 62 64 57 54 49 50 49 50 53 49 51 47
7 8 10 13 9 9 7 4 3 5 9 12 13 15 19 22 25 26 27 30 32 36 42 45 43 38 43 48 54 59 63 63 61 58 58 51 50 49 48 52 54 56 53 57
4 6 8 5 5 10 13 9 13 12 8 12 17 20 22 23 25 28 32 33 39 44 46 39 42 47 52 57 60 66 68 65 58 52 53 53 51 44 43 42 46 53 62 62
9 7 6 10 7 15 10 4 10 6 9 14 13 18 25 28 31 33 38 43 44 38 38 48 53 57 62 65 63 58 51 44 42 43 43 40 38 37 35 35 37 40 45 49
13 13 17 18 14 8 11 6 11 14 18 22 28 34 35 36 37 39 38 36 40 46 51 54 61 63 60 51 44 39 36 34 34 33 33 33 32 33 34 34 35 36 37 37
14 7 12 10 13 11 12 19 22 25 27 25 29 35 37 34 31 33 39 44 48 52 58 59 55 49 42 39 36 33 32 31 29 29 28 28 30 30 30 31 31 29 31 33
Wind_Direction
219 208 213 216 221 231 243 238 266 239 237 222 232 244 243 243 237 232 239 241 232 232 233 231 230 227 230 235 243 243 239 251 249 250 247 241 242 247 250 248 249 253 253 250
221 226 224 227 231 235 245 260 256 265 264 242 238 246 247 246 245 242 240 241 237 235 235 231 232 237 247 257 261 248 244 245 250 250 253 252 249 250 254 247 248 251 255 254
230 230 224 230 235 240 246 256 252 252 258 257 255 256 256 251 248 243 243 240 240 235 232 239 242 240 255 247 253 261 250 245 247 251 253 255 256 255 257 256 252 251 253 253
242 246 239 235 243 248 244 244 248 254 257 259 243 255 251 247 240 238 239 236 235 234 235 237 239 239 244 246 258 253 256 256 250 250 252 256 257 256 256 259 260 263 258 255
248 242 250 253 250 250 247 245 250 250 250 261 256 265 264 269 256 238 235 233 232 234 241 237 249 235 231 222 236 261 260 262 258 251 254 255 257 259 259 259 261 256 261 266
258 256 275 258 255 244 247 250 254 258 258 259 254 256 261 256 250 241 235 227 220 229 227 223 213 218 234 249 245 245 250 255 256 257 256 255 257 258 259 258 254 254 254 255
256 253 248 251 260 248 233 240 254 247 241 249 250 244 246 253 248 242 206 203 216 202 194 207 223 235 245 260 254 248 252 250 256 256 257 256 256 257 257 259 260 258 257 257
259 265 248 242 240 245 246 233 240 251 258 267 267 249 297 251 202 213 163 182 194 206 198 208 218 232 252 264 264 274 274 274 271 270 262 258 258 257 257 258 257 258 257 253
270 258 261 253 255 237 252 258 257 286 289 292 282 277 265 264 253 233 219 225 232 216 218 230 249 272 271 261 266 273 269 286 298 295 281 267 261 258 257 257 258 260 259 257
251 294 264 260 272 250 253 247 242 256 265 267 266 267 276 316 291 211 198 217 214 225 222 234 247 253 259 263 273 279 273 266 270 292 297 295 280 264 263 262 261 260 259 259
271 264 261 282 268 255 253 249 249 251 257 253 281 272 322 287 303 193 234 225 234 229 243 252 259 273 285 264 271 278 271 258 255 266 277 271 276 289 279 269 267 266 264 263
237 263 266 269 264 257 254 255 256 251 253 251 262 270 288 270 263 212 201 226 239 256 265 273 285 279 267 260 257 258 266 270 271 263 265 267 280 284 285 286 276 270 270 261
236 253 284 280 267 250 246 261 253 257 250 246 244 251 270 272 218 242 223 248 257 271 277 283 273 268 273 263 258 260 266 275 282 264 267 274 267 273 286 285 281 283 283 278
250 258 257 260 268 293 280 282 291 273 252 259 254 272 265 294 284 277 251 267 266 269 271 269 269 275 280 282 269 262 265 268 270 275 273 273 276 282 282 283 281 281 276 265
258 265 265 263 267 270 270 269 264 260 265 257 270 269 270 286 291 293 284 276 263 258 261 265 274 276 282 289 287 292 289 290 284 287 292 288 282 281 282 280 279 283 281 281
264 273 276 271 265 260 264 264 263 260 259 262 267 270 277 277 265 263 250 241 256 273 284 289 290 289 272 274 285 288 288 287 282 287 290 292 290 284 277 281 280 275 276 276
262 267 280 273 263 260 257 257 261 264 260 258 263 273 275 254 248 239 260 269 272 280 282 283 277 266 270 270 267 271 270 274 279 282 293 295 284 280 274 273 275 277 274 273
251 264 256 266 287 259 270 266 242 268 274 273 259 266 273 238 263 287 284 292 287 277 267 260 260 263 267 275 278 272 272 275 280 282 293 290 267 271 271 273 270 267 274 270
250 245 251 260 268 274 274 252 237 270 277 255 290 256 206 290 290 290 293 270 278 277 279 274 276 280 277 270 272 279 284 286 287 288 292 295 265 260 259 252 272 270 261 268
248 237 229 254 279 281 252 206 165 297 267 229 204 324 319 315 299 288 270 275 274 278 283 282 285 291 293 290 278 274 275 279 281 289 294 287 282 274 262 251 245 249 254 252
215 225 227 240 250 264 275 203 270 243 271 292 287 311 305 304 293 287 286 284 282 288 290 291 294 296 294 292 290 284 278 282 288 289 289 288 280 274 262 251 245 246 251 243
230 233 232 236 243 251 222 256 261 273 298 309 309 305 303 297 298 300 298 294 295 292 295 300 300 289 280 276 277 284 287 291 292 290 288 282 283 283 271 254 247 245 246 254
267 246 285 269 255 297 281 263 299 303 327 308 305 302 302 301 299 298 301 299 294 299 303 303 291 284 287 297 298 294 293 292 289 282 281 278 282 279 275 266 256 249 249 255
308 282 290 298 298 299 315 293 245 303 280 281 299 300 292 301 303 302 298 300 304 305 291 287 297 300 298 298 297 294 293 290 286 281 281 282 283 283 279 276 272 265 256 254
292 290 286 283 282 265 268 280 303 303 308 300 286 286 299 306 304 304 308 301 293 293 301 302 300 299 299 300 299 299 296 291 285 282 283 286 285 281 276 272 267 261 259 257
276 300 312 288 289 301 288 288 298 299 299 309 301 304 307 309 309 297 297 302 305 304 303 302 302 303 304 301 300 300 295 289 287 287 288 287 282 280 276 274 270 264 263 260
Height
3080 3083 3082 3084 3085 3086 3084 3083 3084 3084 3086 3087 3090 3093 3094 3096 3097 3099 3101 3101 3103 3106 3108 3110 3111 3112 3111 3110 3109 3115 3118 3118 3121 3121 3123 3125 3126 3129 3130 3132 3134 3134 3133 3138
3081 3079 3080 3082 3083 3083 3083 3081 3082 3082 3082 3084 3085 3087 3090 3091 3092 3094 3095 3096 3098 3101 3103 3105 3106 3107 3106 3106 3105 3106 3109 3111 3111 3114 3115 3117 3119 3120 3122 3123 3124 3126 3126 3129
3077 3076 3076 3079 3079 3080 3081 3081 3082 3083 3082 3082 3084 3083 3084 3086 3086 3087 3089 3091 3092 3095 3098 3099 3100 3102 3102 3101 3100 3100 3101 3101 3104 3107 3107 3108 3110 3112 3112 3113 3116 3118 3119 3120
3075 3075 3076 3077 3077 3078 3078 3081 3081 3081 3081 3078 3080 3076 3076 3076 3076 3079 3082 3084 3087 3090 3092 3093 3095 3096 3096 3095 3098 3097 3095 3093 3097 3098 3099 3100 3101 3103 3105 3106 3107 3107 3110 3111
3072 3072 3073 3073 3074 3075 3075 3077 3076 3076 3076 3078 3076 3074 3070 3070 3070 3071 3074 3076 3080 3084 3086 3088 3089 3090 3090 3089 3090 3090 3090 3087 3085 3088 3089 3091 3092 3093 3095 3097 3099 3100 3099 3099
3069 3067 3069 3069 3070 3071 3073 3073 3073 3074 3075 3070 3072 3071 3065 3065 3064 3064 3067 3070 3074 3078 3081 3083 3080 3081 3081 3082 3083 3083 3081 3080 3078 3079 3080 3081 3081 3083 3084 3087 3088 3089 3091 3089
3066 3065 3067 3068 3069 3068 3070 3072 3071 3070 3068 3062 3063 3061 3057 3057 3058 3059 3060 3065 3068 3069 3071 3072 3074 3074 3076 3075 3076 3074 3073 3071 3071 3072 3072 3071 3071 3071 3073 3075 3076 3078 3079 3078
3064 3062 3062 3064 3066 3067 3066 3068 3067 3062 3056 3050 3050 3048 3052 3051 3054 3054 3058 3058 3060 3062 3064 3065 3066 3068 3070 3071 3069 3067 3066 3065 3063 3063 3061 3062 3063 3062 3062 3062 3064 3065 3067 3067
3059 3057 3059 3061 3062 3064 3064 3061 3065 3062 3058 3055 3052 3047 3052 3052 3051 3054 3055 3056 3057 3056 3058 3060 3064 3064 3064 3064 3063 3061 3060 3057 3053 3051 3051 3051 3052 3050 3050 3051 3051 3051 3053 3054
3056 3054 3055 3057 3058 3058 3058 3061 3062 3063 3060 3054 3048 3045 3045 3045 3047 3049 3051 3055 3054 3055 3056 3058 3059 3058 3058 3058 3057 3054 3052 3050 3048 3044 3042 3040 3037 3039 3040 3040 3041 3041 3040 3040
3053 3054 3054 3054 3054 3055 3055 3055 3057 3059 3057 3057 3049 3044 3043 3046 3048 3048 3048 3051 3051 3052 3054 3053 3051 3050 3050 3050 3051 3047 3042 3040 3039 3037 3035 3030 3026 3030 3030 3029 3028 3029 3029 3029
3051 3049 3048 3048 3049 3050 3050 3050 3052 3052 3050 3046 3048 3042 3041 3046 3048 3044 3047 3050 3048 3047 3048 3045 3045 3044 3043 3042 3039 3038 3033 3031 3029 3029 3026 3026 3020 3018 3021 3019 3018 3018 3017 3016
3046 3047 3045 3041 3041 3041 3043 3044 3042 3044 3043 3038 3044 3039 3040 3038 3041 3040 3040 3042 3043 3042 3040 3040 3039 3036 3034 3031 3028 3027 3025 3023 3020 3018 3016 3014 3013 3011 3010 3010 3009 3009 3008 3006
3043 3042 3044 3042 3039 3041 3038 3037 3039 3038 3036 3034 3031 3034 3037 3033 3035 3036 3037 3035 3035 3036 3036 3034 3031 3028 3026 3023 3021 3019 3018 3016 3013 3010 3006 3004 3003 3000 3000 3001 2999 2999 2998 2998
3038 3036 3038 3036 3036 3034 3032 3032 3033 3032 3031 3031 3030 3031 3032 3032 3030 3029 3032 3032 3031 3031 3029 3025 3024 3023 3021 3018 3012 3009 3008 3006 3004 3000 2998 2996 2994 2994 2989 2989 2991 2988 2988 2988
3032 3031 3031 3028 3029 3027 3025 3025 3025 3025 3025 3024 3025 3022 3027 3027 3026 3025 3024 3024 3026 3024 3022 3020 3018 3018 3015 3011 3006 3002 2998 2996 2995 2992 2990 2988 2986 2985 2984 2979 2978 2979 2979 2979
3029 3029 3028 3022 3022 3021 3019 3018 3018 3018 3017 3019 3019 3020 3021 3020 3017 3019 3021 3020 3020 3019 3017 3015 3012 3008 3005 3002 2998 2994 2990 2986 2984 2980 2979 2978 2976 2974 2973 2971 2967 2966 2970 2970
3023 3026 3025 3020 3020 3016 3012 3012 3013 3013 3013 3014 3015 3016 3012 3015 3015 3017 3017 3015 3013 3011 3007 3003 3000 2998 2996 2993 2989 2982 2978 2975 2972 2969 2966 2965 2965 2962 2961 2959 2958 2956 2956 2959
3017 3020 3021 3018 3016 3012 3010 3010 3011 3010 3012 3010 3010 3008 3008 3010 3011 3013 3012 3005 3004 3001 2998 2994 2991 2988 2984 2981 2977 2971 2964 2959 2956 2952 2951 2950 2950 2947 2946 2945 2948 2947 2947 2945
3014 3015 3018 3017 3014 3009 3006 3006 3007 3010 3009 3006 3006 3007 3007 3007 3006 3006 3001 2998 2995 2992 2989 2984 2980 2976 2971 2967 2964 2959 2951 2945 2940 2938 2935 2934 2931 2931 2932 2934 2931 2931 2935 2935
3011 3011 3011 3013 3013 3009 3005 3004 3006 3008 3010 3004 3004 3004 3002 3001 2999 2994 2991 2989 2986 2983 2979 2974 2969 2964 2961 2956 2949 2942 2937 2933 2927 2922 2918 2915 2913 2912 2914 2914 2918 2919 2919 2922
3009 3009 3008 3008 3008 3006 3002 3003 3005 3004 3002 3002 3001 2999 2996 2993 2990 2987 2985 2980 2977 2972 2966 2963 2957 2953 2948 2942 2934 2927 2921 2917 2912 2906 2902 2898 2896 2895 2895 2896 2899 2903 2904 2907
3008 3007 3005 3006 3003 3000 3001 3000 3002 3000 3000 2999 2996 2993 2989 2986 2983 2979 2975 2971 2965 2960 2955 2950 2944 2935 2929 2924 2918 2909 2903 2897 2891 2887 2884 2882 2881 2879 2879 2879 2882 2885 2889 2891
3005 3003 3004 3004 3001 3000 2997 2996 2996 2995 2994 2991 2989 2986 2982 2977 2973 2969 2964 2959 2953 2949 2943 2933 2927 2921 2913 2907 2899 2891 2883 2879 2874 2871 2869 2869 2868 2866 2866 2866 2868 2869 2873 2875
3006 3004 3002 3000 3000 2997 2994 2993 2988 2990 2988 2985 2982 2978 2973 2968 2963 2958 2953 2948 2941 2934 2928 2921 2912 2903 2894 2889 2882 2877 2872 2867 2863 2861 2860 2859 2857 2855 2854 2854 2854 2854 2857 2860
3000 2999 2998 2997 2995 2993 2991 2987 2987 2984 2981 2978 2972 2968 2964 2959 2954 2948 2941 2936 2928 2920 2913 2904 2896 2888 2881 2876 2871 2868 2862 2858 2855 2853 2851 2850 2846 2844 2843 2842 2842 2844 2845 2847